Weather History for West Plains, MO

Change the Weather History Date:

Friday, July 12, 2013

  Actual Average Record
Temperature  
Mean Temperature 72 °F 78 °F  
Max Temperature 87 °F 89 °F 107 °F (1980)
Min Temperature 57 °F 67 °F 52 °F (1959)
Degree Days  
Heating Degree Days 0 0  
Month to date heating degree days 0 0  
Since 1 June heating degree days 9 5  
Since 1 July heating degree days 0 0  
Cooling Degree Days 7 13  
Month to date cooling degree days 110 152  
Year to date cooling degree days 370 540  
Since 1 June cooling degree days 258 418  
Growing Degree Days 22 (Base 50)    
Moisture  
Dew Point 55 °F    
Average Humidity 60    
Maximum Humidity 90    
Minimum Humidity 29    
Precipitation  
Precipitation 0.00 in 0.13 in 3.26 in (1958)
Month to date precipitation 0.00 1.42  
Year to date precipitation 25.49 24.71  
Sea Level Pressure  
Sea Level Pressure 30.06 in    
Wind  
Wind Speed 5 mph (ENE)    
Max Wind Speed 12 mph    
Max Gust Speed 20 mph    
Visibility 10 miles    
Events      
T = Trace of Precipitation, MM = Missing Value Source: NWS Daily Summary

Daily Weather History Graph

Daily Weather History Graph

Search for Another Location

Airport:

Trip Planner

Search our weather history database for the weather conditions in past years. The results will help you decide how hot, cold, wet, or windy it might be!

Date:

Astronomy

Jul. 12, 2013 Rise Set
Actual Time 5:58 AM CDT 8:27 PM CDT
Civil Twilight 5:28 AM CDT 8:58 PM CDT
Nautical Twilight 4:50 AM CDT 9:35 PM CDT
Astronomical Twilight 4:09 AM CDT 10:16 PM CDT
Moon 10:07 AM CDT (7/12) 10:47 PM CDT (7/12)
Length of Visible Light 15h 29m
Length of Day
14h 29m
Waxing Crescent, 17% of the Moon is Illuminated
Jul 12
Waxing Crescent
Jul 15
First Quarter
Jul 22
Full
Jul 29
Last Quarter
Aug 6
New

Hourly Weather History & Observations

Time (CDT) Temp. Heat Index Dew Point Humidity Pressure Visibility Wind Dir Wind Speed Gust Speed Precip Events Conditions
12:53 AM 64.0 °F - 59.0 °F 84% 30.04 in 10.0 mi ENE 4.6 mph - N/A   Clear
1:53 AM 64.0 °F - 57.9 °F 80% 30.04 in 10.0 mi Calm Calm - N/A   Clear
2:53 AM 62.1 °F - 57.9 °F 86% 30.04 in 10.0 mi NE 3.5 mph - N/A   Clear
3:53 AM 63.0 °F - 57.9 °F 84% 30.05 in 10.0 mi Calm Calm - N/A   Clear
4:53 AM 60.1 °F - 57.0 °F 90% 30.06 in 10.0 mi Calm Calm - N/A   Clear
5:53 AM 57.0 °F - 54.0 °F 89% 30.07 in 10.0 mi NE 4.6 mph - N/A   Clear
6:53 AM 62.1 °F - 57.9 °F 86% 30.07 in 10.0 mi NE 5.8 mph - N/A   Clear
7:53 AM 66.9 °F - 57.9 °F 73% 30.09 in 10.0 mi East 5.8 mph - N/A   Clear
8:53 AM 72.0 °F - 57.9 °F 61% 30.10 in 10.0 mi East 9.2 mph - N/A   Clear
9:53 AM 75.0 °F - 55.0 °F 50% 30.10 in 10.0 mi East 6.9 mph 16.1 mph N/A   Clear
10:53 AM 77.0 °F - 54.0 °F 45% 30.10 in 10.0 mi SE 8.1 mph - N/A   Clear
11:53 AM 79.0 °F - 51.1 °F 38% 30.09 in 10.0 mi SE 4.6 mph - N/A   Clear
12:53 PM 81.0 °F - 52.0 °F 36% 30.07 in 10.0 mi Variable 5.8 mph - N/A   Clear
1:53 PM 84.0 °F 82.5 °F 53.1 °F 34% 30.06 in 10.0 mi NE 10.4 mph - N/A   Clear
2:53 PM 86.0 °F - 51.1 °F 30% 30.04 in 10.0 mi NNE 5.8 mph - N/A   Clear
3:53 PM 86.0 °F - 50.0 °F 29% 30.03 in 10.0 mi North 4.6 mph - N/A   Clear
6:53 PM 82.9 °F - 52.0 °F 34% 30.01 in 10.0 mi ENE 6.9 mph - N/A   Clear
8:53 PM 73.9 °F - 53.1 °F 48% 30.02 in 10.0 mi Calm Calm - N/A   Clear
9:53 PM 64.0 °F - 55.0 °F 73% 30.04 in 10.0 mi Calm Calm - N/A   Clear
10:53 PM 62.1 °F - 55.0 °F 78% 30.04 in 10.0 mi North - - N/A   Clear
11:53 PM 61.0 °F - 55.0 °F 81% 30.06 in 10.0 mi North 3.5 mph - N/A   Clear